﻿測定場所 (Monitoring sites),日付 (Measurement date),時間 (Measurement time),線量率 最大値 (max) μGy/h,線量率 最小値 (min) μGy/h,線量率 平均値 (average) μGy/h,
足立 (Adachi),2020-05-03,23:01～24:00,0.0318,0.0279,0.0296,
足立 (Adachi),2020-05-03,22:01～23:00,0.0314,0.0276,0.0294,
足立 (Adachi),2020-05-03,21:01～22:00,0.0314,0.0275,0.0294,
足立 (Adachi),2020-05-03,20:01～21:00,0.0317,0.0280,0.0296,
足立 (Adachi),2020-05-03,19:01～20:00,0.0317,0.0277,0.0294,
足立 (Adachi),2020-05-03,18:01～19:00,0.0316,0.0279,0.0295,
足立 (Adachi),2020-05-03,17:01～18:00,0.0323,0.0275,0.0293,
足立 (Adachi),2020-05-03,16:01～17:00,0.0312,0.0278,0.0294,
足立 (Adachi),2020-05-03,15:01～16:00,0.0306,0.0267,0.0292,
足立 (Adachi),2020-05-03,14:01～15:00,0.0311,0.0279,0.0293,
足立 (Adachi),2020-05-03,13:01～14:00,0.0312,0.0267,0.0293,
足立 (Adachi),2020-05-03,12:01～13:00,0.0317,0.0278,0.0295,
足立 (Adachi),2020-05-03,11:01～12:00,0.0313,0.0275,0.0294,
足立 (Adachi),2020-05-03,10:01～11:00,0.0315,0.0280,0.0296,
足立 (Adachi),2020-05-03,09:01～10:00,0.0321,0.0283,0.0299,
足立 (Adachi),2020-05-03,08:01～09:00,0.0320,0.0282,0.0302,
足立 (Adachi),2020-05-03,07:01～08:00,0.0329,0.0284,0.0306,
足立 (Adachi),2020-05-03,06:01～07:00,0.0332,0.0285,0.0311,
足立 (Adachi),2020-05-03,05:01～06:00,0.0331,0.0280,0.0307,
足立 (Adachi),2020-05-03,04:01～05:00,0.0326,0.0290,0.0304,
足立 (Adachi),2020-05-03,03:01～04:00,0.0321,0.0285,0.0302,
足立 (Adachi),2020-05-03,02:01～03:00,0.0326,0.0283,0.0302,
足立 (Adachi),2020-05-03,01:01～02:00,0.0324,0.0283,0.0302,
足立 (Adachi),2020-05-03,00:01～01:00,0.0315,0.0275,0.0300,
足立 (Adachi),2020-05-02,23:01～24:00,0.0317,0.0288,0.0299,
足立 (Adachi),2020-05-02,22:01～23:00,0.0319,0.0277,0.0296,
足立 (Adachi),2020-05-02,21:01～22:00,0.0315,0.0280,0.0296,
足立 (Adachi),2020-05-02,20:01～21:00,0.0314,0.0280,0.0296,
足立 (Adachi),2020-05-02,19:01～20:00,0.0324,0.0280,0.0299,
足立 (Adachi),2020-05-02,18:01～19:00,0.0316,0.0285,0.0297,
足立 (Adachi),2020-05-02,17:01～18:00,0.0322,0.0278,0.0298,
足立 (Adachi),2020-05-02,16:01～17:00,0.0314,0.0276,0.0297,
足立 (Adachi),2020-05-02,15:01～16:00,0.0321,0.0278,0.0299,
足立 (Adachi),2020-05-02,14:01～15:00,0.0320,0.0276,0.0298,
足立 (Adachi),2020-05-02,13:01～14:00,0.0315,0.0284,0.0296,
足立 (Adachi),2020-05-02,12:01～13:00,0.0320,0.0271,0.0295,
足立 (Adachi),2020-05-02,11:01～12:00,0.0324,0.0274,0.0297,
足立 (Adachi),2020-05-02,10:01～11:00,0.0324,0.0277,0.0296,
足立 (Adachi),2020-05-02,09:01～10:00,0.0315,0.0274,0.0297,
足立 (Adachi),2020-05-02,08:01～09:00,0.0319,0.0279,0.0298,
足立 (Adachi),2020-05-02,07:01～08:00,0.0315,0.0281,0.0296,
足立 (Adachi),2020-05-02,06:01～07:00,0.0317,0.0277,0.0299,
足立 (Adachi),2020-05-02,05:01～06:00,0.0320,0.0284,0.0301,
足立 (Adachi),2020-05-02,04:01～05:00,0.0321,0.0277,0.0298,
足立 (Adachi),2020-05-02,03:01～04:00,0.0324,0.0280,0.0300,
足立 (Adachi),2020-05-02,02:01～03:00,0.0322,0.0282,0.0298,
足立 (Adachi),2020-05-02,01:01～02:00,0.0310,0.0275,0.0295,
足立 (Adachi),2020-05-02,00:01～01:00,0.0315,0.0279,0.0296,
足立 (Adachi),2020-05-01,23:01～24:00,0.0317,0.0276,0.0297,
足立 (Adachi),2020-05-01,22:01～23:00,0.0315,0.0277,0.0295,
足立 (Adachi),2020-05-01,21:01～22:00,0.0320,0.0278,0.0295,
足立 (Adachi),2020-05-01,20:01～21:00,0.0313,0.0274,0.0294,
足立 (Adachi),2020-05-01,19:01～20:00,0.0306,0.0270,0.0290,
足立 (Adachi),2020-05-01,18:01～19:00,0.0316,0.0270,0.0294,
足立 (Adachi),2020-05-01,17:01～18:00,0.0311,0.0277,0.0293,
足立 (Adachi),2020-05-01,16:01～17:00,0.0319,0.0271,0.0293,
足立 (Adachi),2020-05-01,15:01～16:00,0.0312,0.0272,0.0290,
足立 (Adachi),2020-05-01,14:01～15:00,0.0308,0.0275,0.0291,
足立 (Adachi),2020-05-01,13:01～14:00,0.0308,0.0271,0.0290,
足立 (Adachi),2020-05-01,12:01～13:00,0.0307,0.0268,0.0289,
足立 (Adachi),2020-05-01,11:01～12:00,0.0307,0.0274,0.0291,
足立 (Adachi),2020-05-01,10:01～11:00,0.0312,0.0276,0.0290,
足立 (Adachi),2020-05-01,09:01～10:00,0.0310,0.0262,0.0287,
足立 (Adachi),2020-05-01,08:01～09:00,0.0306,0.0267,0.0287,
足立 (Adachi),2020-05-01,07:01～08:00,0.0305,0.0268,0.0289,
足立 (Adachi),2020-05-01,06:01～07:00,0.0311,0.0273,0.0290,
足立 (Adachi),2020-05-01,05:01～06:00,0.0305,0.0266,0.0288,
足立 (Adachi),2020-05-01,04:01～05:00,0.0313,0.0274,0.0289,
足立 (Adachi),2020-05-01,03:01～04:00,0.0307,0.0267,0.0288,
足立 (Adachi),2020-05-01,02:01～03:00,0.0309,0.0271,0.0290,
足立 (Adachi),2020-05-01,01:01～02:00,0.0308,0.0275,0.0290,
足立 (Adachi),2020-05-01,00:01～01:00,0.0313,0.0272,0.0290,
足立 (Adachi),2020-04-30,23:01～24:00,0.0313,0.0274,0.0290,
足立 (Adachi),2020-04-30,22:01～23:00,0.0315,0.0274,0.0293,
足立 (Adachi),2020-04-30,21:01～22:00,0.0307,0.0271,0.0291,
足立 (Adachi),2020-04-30,20:01～21:00,0.0305,0.0271,0.0291,
足立 (Adachi),2020-04-30,19:01～20:00,0.0318,0.0274,0.0291,
足立 (Adachi),2020-04-30,18:01～19:00,0.0319,0.0272,0.0293,
足立 (Adachi),2020-04-30,17:01～18:00,0.0311,0.0269,0.0293,
足立 (Adachi),2020-04-30,16:01～17:00,0.0312,0.0275,0.0292,
足立 (Adachi),2020-04-30,15:01～16:00,0.0305,0.0276,0.0291,
足立 (Adachi),2020-04-30,14:01～15:00,0.0320,0.0265,0.0291,
足立 (Adachi),2020-04-30,13:01～14:00,0.0308,0.0273,0.0288,
足立 (Adachi),2020-04-30,12:01～13:00,0.0312,0.0276,0.0292,
足立 (Adachi),2020-04-30,11:01～12:00,0.0319,0.0269,0.0290,
足立 (Adachi),2020-04-30,10:01～11:00,0.0319,0.0273,0.0295,
足立 (Adachi),2020-04-30,09:01～10:00,0.0314,0.0279,0.0296,
足立 (Adachi),2020-04-30,08:01～09:00,0.0313,0.0277,0.0294,
足立 (Adachi),2020-04-30,07:01～08:00,0.0319,0.0276,0.0297,
足立 (Adachi),2020-04-30,06:01～07:00,0.0314,0.0277,0.0296,
足立 (Adachi),2020-04-30,05:01～06:00,0.0317,0.0281,0.0298,
足立 (Adachi),2020-04-30,04:01～05:00,0.0314,0.0275,0.0297,
足立 (Adachi),2020-04-30,03:01～04:00,0.0310,0.0279,0.0293,
足立 (Adachi),2020-04-30,02:01～03:00,0.0314,0.0278,0.0296,
足立 (Adachi),2020-04-30,01:01～02:00,0.0315,0.0278,0.0296,
足立 (Adachi),2020-04-30,00:01～01:00,0.0322,0.0281,0.0297,
足立 (Adachi),2020-04-29,23:01～24:00,0.0308,0.0263,0.0291,
足立 (Adachi),2020-04-29,22:01～23:00,0.0317,0.0280,0.0294,
足立 (Adachi),2020-04-29,21:01～22:00,0.0316,0.0275,0.0293,
足立 (Adachi),2020-04-29,20:01～21:00,0.0317,0.0277,0.0294,
足立 (Adachi),2020-04-29,19:01～20:00,0.0309,0.0274,0.0292,
足立 (Adachi),2020-04-29,18:01～19:00,0.0306,0.0271,0.0290,
足立 (Adachi),2020-04-29,17:01～18:00,0.0313,0.0276,0.0291,
足立 (Adachi),2020-04-29,16:01～17:00,0.0315,0.0267,0.0291,
足立 (Adachi),2020-04-29,15:01～16:00,0.0313,0.0276,0.0292,
足立 (Adachi),2020-04-29,14:01～15:00,0.0311,0.0272,0.0287,
足立 (Adachi),2020-04-29,13:01～14:00,0.0305,0.0264,0.0287,
足立 (Adachi),2020-04-29,12:01～13:00,0.0307,0.0270,0.0289,
足立 (Adachi),2020-04-29,11:01～12:00,0.0308,0.0272,0.0290,
足立 (Adachi),2020-04-29,10:01～11:00,0.0306,0.0272,0.0287,
足立 (Adachi),2020-04-29,09:01～10:00,0.0322,0.0270,0.0290,
足立 (Adachi),2020-04-29,08:01～09:00,0.0313,0.0278,0.0294,
足立 (Adachi),2020-04-29,07:01～08:00,0.0315,0.0273,0.0292,
足立 (Adachi),2020-04-29,06:01～07:00,0.0321,0.0277,0.0295,
足立 (Adachi),2020-04-29,05:01～06:00,0.0308,0.0272,0.0290,
足立 (Adachi),2020-04-29,04:01～05:00,0.0318,0.0273,0.0292,
足立 (Adachi),2020-04-29,03:01～04:00,0.0309,0.0272,0.0289,
足立 (Adachi),2020-04-29,02:01～03:00,0.0311,0.0273,0.0290,
足立 (Adachi),2020-04-29,01:01～02:00,0.0309,0.0272,0.0289,
足立 (Adachi),2020-04-29,00:01～01:00,0.0309,0.0274,0.0293,
足立 (Adachi),2020-04-28,23:01～24:00,0.0340,0.0283,0.0306,
足立 (Adachi),2020-04-28,22:01～23:00,0.0334,0.0283,0.0312,
足立 (Adachi),2020-04-28,21:01～22:00,0.0304,0.0271,0.0287,
足立 (Adachi),2020-04-28,20:01～21:00,0.0304,0.0269,0.0288,
足立 (Adachi),2020-04-28,19:01～20:00,0.0306,0.0267,0.0287,
足立 (Adachi),2020-04-28,18:01～19:00,0.0309,0.0267,0.0287,
足立 (Adachi),2020-04-28,17:01～18:00,0.0328,0.0280,0.0299,
足立 (Adachi),2020-04-28,16:01～17:00,0.0374,0.0292,0.0335,
足立 (Adachi),2020-04-28,15:01～16:00,0.0527,0.0348,0.0428,
足立 (Adachi),2020-04-28,14:01～15:00,0.0520,0.0284,0.0429,
足立 (Adachi),2020-04-28,13:01～14:00,0.0311,0.0275,0.0291,
足立 (Adachi),2020-04-28,12:01～13:00,0.0307,0.0269,0.0288,
足立 (Adachi),2020-04-28,11:01～12:00,0.0306,0.0269,0.0286,
足立 (Adachi),2020-04-28,10:01～11:00,0.0311,0.0269,0.0290,
足立 (Adachi),2020-04-28,09:01～10:00,0.0304,0.0267,0.0286,
足立 (Adachi),2020-04-28,08:01～09:00,0.0298,0.0271,0.0284,
足立 (Adachi),2020-04-28,07:01～08:00,0.0305,0.0261,0.0283,
足立 (Adachi),2020-04-28,06:01～07:00,0.0309,0.0273,0.0288,
足立 (Adachi),2020-04-28,05:01～06:00,0.0305,0.0274,0.0288,
足立 (Adachi),2020-04-28,04:01～05:00,0.0312,0.0275,0.0290,
足立 (Adachi),2020-04-28,03:01～04:00,0.0303,0.0268,0.0289,
足立 (Adachi),2020-04-28,02:01～03:00,0.0304,0.0269,0.0288,
足立 (Adachi),2020-04-28,01:01～02:00,0.0307,0.0273,0.0291,
足立 (Adachi),2020-04-28,00:01～01:00,0.0314,0.0270,0.0294,
足立 (Adachi),2020-04-27,23:01～24:00,0.0340,0.0296,0.0314,
足立 (Adachi),2020-04-27,22:01～23:00,0.0466,0.0322,0.0380,
足立 (Adachi),2020-04-27,21:01～22:00,0.0532,0.0410,0.0479,
足立 (Adachi),2020-04-27,20:01～21:00,0.0517,0.0383,0.0455,
足立 (Adachi),2020-04-27,19:01～20:00,0.0456,0.0387,0.0426,
足立 (Adachi),2020-04-27,18:01～19:00,0.0455,0.0379,0.0416,
足立 (Adachi),2020-04-27,17:01～18:00,0.0441,0.0357,0.0408,
足立 (Adachi),2020-04-27,16:01～17:00,0.0416,0.0356,0.0386,
足立 (Adachi),2020-04-27,15:01～16:00,0.0430,0.0328,0.0373,
足立 (Adachi),2020-04-27,14:01～15:00,0.0440,0.0331,0.0383,
足立 (Adachi),2020-04-27,13:01～14:00,0.0420,0.0279,0.0325,
足立 (Adachi),2020-04-27,12:01～13:00,0.0312,0.0269,0.0294,
足立 (Adachi),2020-04-27,11:01～12:00,0.0317,0.0278,0.0301,
足立 (Adachi),2020-04-27,10:01～11:00,0.0318,0.0278,0.0298,
足立 (Adachi),2020-04-27,09:01～10:00,0.0314,0.0275,0.0292,
足立 (Adachi),2020-04-27,08:01～09:00,0.0314,0.0273,0.0294,
足立 (Adachi),2020-04-27,07:01～08:00,0.0314,0.0280,0.0297,
足立 (Adachi),2020-04-27,06:01～07:00,0.0317,0.0280,0.0295,
足立 (Adachi),2020-04-27,05:01～06:00,0.0321,0.0280,0.0301,
足立 (Adachi),2020-04-27,04:01～05:00,0.0316,0.0278,0.0300,
足立 (Adachi),2020-04-27,03:01～04:00,0.0329,0.0286,0.0303,
足立 (Adachi),2020-04-27,02:01～03:00,0.0324,0.0280,0.0300,
足立 (Adachi),2020-04-27,01:01～02:00,0.0321,0.0279,0.0298,
足立 (Adachi),2020-04-27,00:01～01:00,0.0318,0.0282,0.0302,
